Change the Weather History Date:

Friday, January 10, 2014

  Actual Average (KMEM) Record (KMEM)
Temperature  
Mean Temperature 50 °F 41 °F  
Max Temperature 59 °F 49 °F 75 °F (1890)
Min Temperature 42 °F 32 °F -2 °F (1886)
Degree Days  
Heating Degree Days 14 24  
Month to date heating degree days 240  
Since 1 July heating degree days 1404  
Cooling Degree Days 0 0  
Month to date cooling degree days 0  
Year to date cooling degree days 0  
Moisture  
Dew Point 48 °F    
Average Humidity 88    
Maximum Humidity 100    
Minimum Humidity 71    
Precipitation  
Precipitation 0.59 in 0.13 in 3.89 in (1974)
Month to date precipitation 1.36  
Year to date precipitation 1.36  
Snow  
Snow 0.00 in 0.10 in 3.60 in (1997)
Month to date snowfall 0.6  
Since 1 July snowfall 0.8  
Snow Depth -    
Sea Level Pressure  
Sea Level Pressure 29.96 in    
Wind  
Wind Speed 9 mph (SSE)    
Max Wind Speed 23 mph    
Max Gust Speed 29 mph    
Visibility 9 miles    
Events      
T = Trace of Precipitation, MM = Missing Value Source: NWS Daily Summary

Daily Weather History Graph

Daily Weather History Graph

Search for Another Location

Airport or City:

Trip Planner

Search our weather history database for the weather conditions in past years. The results will help you decide how hot, cold, wet, or windy it might be!

Date:

Astronomy

Jan. 10, 2014 Rise Set
Actual Time 7:08 AM CST 5:10 PM CST
Civil Twilight 6:41 AM CST 5:38 PM CST
Nautical Twilight 6:10 AM CST 6:09 PM CST
Astronomical Twilight 5:39 AM CST 6:39 PM CST
Moon 1:11 PM CST (1/10) 2:20 AM CST (1/10)
Length of Visible Light 10h 56m
Length of Day
10h 01m
Waxing Gibbous, 75% of the Moon is Illuminated
Jan 10
Waxing Gibbous
Jan 15
Full
Jan 23
Last Quarter
Jan 30
New
Feb 6
First Quarter

Hourly Weather History & Observations

Time (CST) Temp. Windchill Dew Point Humidity Pressure Visibility Wind Dir Wind Speed Gust Speed Precip Events Conditions
12:15 AM 44.6 °F 39.7 °F 35.6 °F 71% 30.18 in 10.0 mi SE 9.2 mph - N/A   Overcast
12:35 AM 42.8 °F 41.1 °F 37.4 °F 81% 30.18 in 10.0 mi SE 3.5 mph - N/A   Overcast
12:55 AM 44.6 °F 43.1 °F 37.4 °F 76% 30.17 in 10.0 mi SE 3.5 mph - N/A   Overcast
1:15 AM 44.6 °F - 37.4 °F 76% 30.16 in 10.0 mi Calm Calm - N/A   Overcast
1:35 AM 42.8 °F - 37.4 °F 81% 30.16 in 10.0 mi Calm Calm - N/A   Overcast
1:55 AM 42.8 °F 38.0 °F 39.2 °F 87% 30.15 in 10.0 mi SE 8.1 mph - N/A   Overcast
2:15 AM 44.6 °F 40.2 °F 39.2 °F 81% 30.16 in 10.0 mi SE 8.1 mph - N/A   Overcast
2:35 AM 44.6 °F 39.2 °F 39.2 °F 81% 30.15 in 10.0 mi SE 10.4 mph - N/A   Overcast
2:55 AM 44.6 °F 40.7 °F 39.2 °F 81% 30.15 in 10.0 mi ESE 6.9 mph - N/A   Overcast
3:15 AM 44.6 °F 43.1 °F 39.2 °F 81% 30.15 in 10.0 mi ESE 3.5 mph - N/A   Overcast
3:35 AM 44.6 °F 40.7 °F 39.2 °F 81% 30.14 in 10.0 mi ESE 6.9 mph - N/A   Overcast
3:55 AM 44.6 °F 40.2 °F 41.0 °F 87% 30.14 in 10.0 mi SE 8.1 mph - N/A   Overcast
4:15 AM 44.6 °F 40.2 °F 41.0 °F 87% 30.13 in 6.0 mi SE 8.1 mph - N/A   Overcast
4:35 AM 44.6 °F 41.4 °F 42.8 °F 93% 30.13 in 10.0 mi SE 5.8 mph - 0.01 in   Overcast
4:55 AM 44.6 °F 39.7 °F 42.8 °F 93% 30.13 in 5.0 mi SE 9.2 mph - 0.01 in   Unknown
5:15 AM 44.6 °F 39.2 °F 44.6 °F 100% 30.12 in 10.0 mi SE 10.4 mph - N/A   Overcast
5:35 AM 44.6 °F 39.7 °F 42.8 °F 93% 30.11 in 10.0 mi SE 9.2 mph - N/A   Overcast
5:55 AM 44.6 °F 39.7 °F 42.8 °F 93% 30.11 in 10.0 mi SE 9.2 mph - N/A   Overcast
6:15 AM 44.6 °F - 42.8 °F 93% 30.11 in 10.0 mi Calm Calm - N/A   Overcast
6:35 AM 44.6 °F - 42.8 °F 93% 30.11 in 10.0 mi Calm Calm - N/A   Overcast
6:55 AM 44.6 °F - 41.0 °F 87% 30.12 in 10.0 mi Calm Calm - N/A   Overcast
7:15 AM 44.6 °F 42.2 °F 41.0 °F 87% 30.11 in 10.0 mi SE 4.6 mph - N/A   Mostly Cloudy
7:35 AM 44.6 °F - 41.0 °F 87% 30.13 in 10.0 mi Calm Calm - N/A   Mostly Cloudy
7:55 AM 44.6 °F 40.7 °F 41.0 °F 87% 30.11 in 10.0 mi ESE 6.9 mph - N/A   Scattered Clouds
8:15 AM 44.6 °F 39.7 °F 41.0 °F 87% 30.11 in 10.0 mi SE 9.2 mph - N/A   Clear
8:35 AM 44.6 °F 39.2 °F 42.8 °F 93% 30.11 in 10.0 mi SE 10.4 mph - N/A   Clear
8:55 AM 44.6 °F 39.2 °F 42.8 °F 93% 30.10 in 10.0 mi SE 10.4 mph - N/A   Clear
9:15 AM 46.4 °F 41.5 °F 44.6 °F 93% 30.09 in 10.0 mi SE 10.4 mph - N/A   Clear
9:35 AM 48.2 °F - 46.4 °F 93% 30.08 in 10.0 mi SE 11.5 mph 18.4 mph N/A   Clear
9:55 AM 48.2 °F - 46.4 °F 93% 30.07 in 10.0 mi SE 13.8 mph - N/A   Clear
10:15 AM 48.2 °F - 46.4 °F 93% 30.06 in 10.0 mi SE 11.5 mph - N/A   Clear
10:35 AM 50.0 °F - 46.4 °F 87% 30.04 in 10.0 mi SE 12.7 mph - N/A   Unknown
10:55 AM 50.0 °F - 48.2 °F 94% 30.03 in 10.0 mi SSE 13.8 mph - N/A   Unknown
11:15 AM 53.6 °F - 48.2 °F 82% 30.01 in 10.0 mi SE 12.7 mph - N/A   Unknown
11:35 AM 55.4 °F - 50.0 °F 82% 30.00 in 10.0 mi SSE 12.7 mph - N/A   Unknown
11:55 AM 57.2 °F - 50.0 °F 77% 29.98 in 10.0 mi SSE 12.7 mph - N/A   Unknown
12:15 PM 59.0 °F - 51.8 °F 77% 29.96 in 10.0 mi SSE 16.1 mph - N/A   Unknown
12:35 PM 59.0 °F - 51.8 °F 77% 29.94 in 10.0 mi SSE 19.6 mph 24.2 mph N/A   Unknown
12:55 PM 59.0 °F - 51.8 °F 77% 29.93 in 10.0 mi SSE 20.7 mph 24.2 mph N/A   Unknown
1:15 PM 57.2 °F - 51.8 °F 82% 29.92 in 10.0 mi SSE 17.3 mph 24.2 mph N/A   Unknown
1:35 PM 57.2 °F - 51.8 °F 82% 29.91 in 10.0 mi SSE 15.0 mph 20.7 mph N/A   Unknown
1:55 PM 57.2 °F - 51.8 °F 82% 29.90 in 10.0 mi SSE 12.7 mph - N/A   Unknown
2:15 PM 57.2 °F - 51.8 °F 82% 29.89 in 10.0 mi SSE 13.8 mph - N/A   Unknown
2:35 PM 57.2 °F - 51.8 °F 82% 29.87 in 10.0 mi SE 16.1 mph - N/A   Unknown
2:55 PM 57.2 °F - 51.8 °F 82% 29.87 in 10.0 mi SSE 13.8 mph - N/A   Unknown
3:15 PM 57.2 °F - 51.8 °F 82% 29.85 in 10.0 mi SE 15.0 mph 20.7 mph N/A   Unknown
3:35 PM 57.2 °F - 50.0 °F 77% 29.84 in 10.0 mi SE 16.1 mph - N/A   Mostly Cloudy
3:55 PM 57.2 °F - 51.8 °F 82% 29.84 in 10.0 mi SE 11.5 mph - N/A   Scattered Clouds
4:15 PM 57.2 °F - 51.8 °F 82% 29.83 in 10.0 mi SSE 12.7 mph - N/A   Mostly Cloudy
4:35 PM 57.2 °F - 51.8 °F 82% 29.82 in 10.0 mi SSE 12.7 mph - N/A   Overcast
4:55 PM 57.2 °F - 51.8 °F 82% 29.81 in 10.0 mi SSE 13.8 mph - N/A   Overcast
5:15 PM 57.2 °F - 51.8 °F 82% 29.80 in 10.0 mi SSE 12.7 mph - N/A   Overcast
5:35 PM 57.2 °F - 53.6 °F 88% 29.80 in 9.0 mi SSE 11.5 mph - N/A   Overcast
5:55 PM 57.2 °F - 53.6 °F 88% 29.80 in 10.0 mi SSE 13.8 mph - N/A   Overcast
6:15 PM 57.2 °F - 53.6 °F 88% 29.78 in 10.0 mi SSE 18.4 mph 25.3 mph N/A   Overcast
6:35 PM 57.2 °F - 53.6 °F 88% 29.77 in 10.0 mi SSE 17.3 mph 21.9 mph N/A   Overcast
6:55 PM 57.2 °F - 53.6 °F 88% 29.77 in 10.0 mi SSE 18.4 mph - N/A   Overcast
7:15 PM 57.2 °F - 53.6 °F 88% 29.77 in 10.0 mi SSE 20.7 mph 25.3 mph N/A   Overcast
7:35 PM 57.2 °F - 55.4 °F 94% 29.76 in 10.0 mi SSE 18.4 mph 23.0 mph N/A   Overcast
7:55 PM 57.2 °F - 55.4 °F 94% 29.75 in 10.0 mi SSE 17.3 mph 25.3 mph N/A   Overcast
8:15 PM 59.0 °F - 55.4 °F 88% 29.75 in 10.0 mi SSE 19.6 mph 25.3 mph N/A   Overcast
8:35 PM 59.0 °F - 55.4 °F 88% 29.73 in 10.0 mi SSE 23.0 mph 26.5 mph N/A   Overcast
8:55 PM 59.0 °F - 57.2 °F 94% 29.73 in 10.0 mi SSE 23.0 mph 28.8 mph N/A   Overcast
9:15 PM 57.2 °F - 57.2 °F 100% 29.77 in 3.0 mi West 9.2 mph - 0.01 in   Overcast
9:35 PM 57.2 °F - 57.2 °F 100% 29.77 in 2.0 mi WSW 9.2 mph - 0.08 in   Overcast
9:55 PM 57.2 °F - 57.2 °F 100% 29.75 in 3.0 mi SSW 4.6 mph - 0.14 in   Mostly Cloudy
10:15 PM 57.2 °F - 57.2 °F 100% 29.74 in 1.8 mi Calm Calm - 0.05 in   Overcast
10:35 PM 55.4 °F - 55.4 °F 100% 29.74 in 2.0 mi Calm Calm - 0.14 in   Overcast
10:55 PM 57.2 °F - 57.2 °F 100% 29.71 in 2.5 mi SSE 8.1 mph - 0.23 in   Overcast
11:15 PM 57.2 °F - 57.2 °F 100% 29.70 in 3.0 mi SSE 8.1 mph - 0.02 in   Overcast
11:35 PM 57.2 °F - 57.2 °F 100% 29.71 in 1.5 mi SSW 12.7 mph - 0.12 in   Overcast
11:55 PM 59.0 °F - 59.0 °F 100% 29.71 in 5.0 mi SSW 11.5 mph - 0.21 in   Overcast